TimeCDT,TemperatureF,Dew PointF,Humidity,Sea Level PressureIn,VisibilityMPH,Wind Direction,Wind SpeedMPH,Gust SpeedMPH,PrecipitationIn,Events,Conditions,WindDirDegrees,DateUTC
12:15 AM,51.8,35.6,54,30.12,10.0,Calm,Calm,-,N/A,,Clear,0,2013-04-26 05:15:00
12:35 AM,51.8,37.4,58,30.13,10.0,NNW,3.5,-,N/A,,Clear,330,2013-04-26 05:35:00
12:55 AM,51.8,35.6,54,30.12,10.0,Calm,Calm,-,N/A,,Clear,0,2013-04-26 05:55:00
1:15 AM,48.2,33.8,58,30.12,10.0,Calm,Calm,-,N/A,,Clear,0,2013-04-26 06:15:00
1:35 AM,48.2,35.6,62,30.12,10.0,South,3.5,-,N/A,,Clear,180,2013-04-26 06:35:00
1:55 AM,48.2,35.6,62,30.13,10.0,WNW,4.6,-,N/A,,Clear,300,2013-04-26 06:55:00
2:15 AM,48.2,35.6,62,30.13,10.0,West,3.5,-,N/A,,Clear,270,2013-04-26 07:15:00
2:35 AM,46.4,35.6,66,30.13,10.0,Calm,Calm,-,N/A,,Clear,0,2013-04-26 07:35:00
2:55 AM,46.4,35.6,66,30.12,10.0,Calm,Calm,-,N/A,,Clear,0,2013-04-26 07:55:00
3:15 AM,44.6,33.8,66,30.12,10.0,North,4.6,-,N/A,,Clear,350,2013-04-26 08:15:00
3:35 AM,44.6,33.8,66,30.12,10.0,North,4.6,-,N/A,,Clear,350,2013-04-26 08:35:00
3:55 AM,44.6,33.8,66,30.13,10.0,NNE,5.8,-,N/A,,Clear,30,2013-04-26 08:55:00
4:15 AM,44.6,33.8,66,30.13,10.0,NNE,6.9,-,N/A,,Clear,30,2013-04-26 09:15:00
4:35 AM,42.8,33.8,70,30.13,10.0,NNE,4.6,-,N/A,,Clear,20,2013-04-26 09:35:00
4:55 AM,42.8,33.8,70,30.13,10.0,North,5.8,-,N/A,,Clear,10,2013-04-26 09:55:00
5:15 AM,42.8,33.8,70,30.13,10.0,NNW,6.9,-,N/A,,Clear,340,2013-04-26 10:15:00
5:35 AM,44.6,35.6,71,30.13,10.0,NNW,8.1,-,N/A,,Clear,340,2013-04-26 10:35:00
5:55 AM,42.8,35.6,76,30.14,10.0,North,8.1,-,N/A,,Clear,350,2013-04-26 10:55:00
6:15 AM,42.8,33.8,70,30.14,10.0,North,3.5,-,N/A,,Clear,360,2013-04-26 11:15:00
6:35 AM,39.2,33.8,81,30.14,10.0,NE,5.8,-,N/A,,Clear,50,2013-04-26 11:35:00
6:55 AM,41.0,33.8,76,30.15,10.0,NE,8.1,-,N/A,,Clear,40,2013-04-26 11:55:00
7:15 AM,41.0,33.8,76,30.15,10.0,NNE,4.6,-,N/A,,Clear,30,2013-04-26 12:15:00
7:35 AM,39.2,30.2,70,30.16,10.0,NW,3.5,-,N/A,,Clear,320,2013-04-26 12:35:00
7:55 AM,39.2,32.0,75,30.17,9.0,North,3.5,-,N/A,,Clear,350,2013-04-26 12:55:00
8:15 AM,44.6,35.6,71,30.18,10.0,Calm,Calm,-,N/A,,Clear,0,2013-04-26 13:15:00
8:35 AM,51.8,39.2,62,30.19,10.0,Calm,Calm,-,N/A,,Clear,0,2013-04-26 13:35:00
8:55 AM,53.6,41.0,62,30.20,10.0,SE,3.5,-,N/A,,Clear,140,2013-04-26 13:55:00
9:15 AM,57.2,41.0,55,30.21,10.0,Calm,Calm,-,N/A,,Clear,0,2013-04-26 14:15:00
9:35 AM,59.0,41.0,51,30.21,10.0,Calm,Calm,-,N/A,,Clear,0,2013-04-26 14:35:00
9:55 AM,62.6,41.0,45,30.21,10.0,WSW,3.5,-,N/A,,Clear,250,2013-04-26 14:55:00
10:15 AM,68.0,35.6,30,30.21,10.0,WNW,13.8,-,N/A,,Clear,290,2013-04-26 15:15:00
10:35 AM,71.6,24.8,17,30.21,10.0,WNW,12.7,-,N/A,,Clear,290,2013-04-26 15:35:00
10:55 AM,73.4,24.8,16,30.21,10.0,WNW,17.3,23.0,N/A,,Clear,290,2013-04-26 15:55:00
11:15 AM,73.4,24.8,16,30.21,10.0,WNW,18.4,26.5,N/A,,Clear,290,2013-04-26 16:15:00
11:35 AM,75.2,24.8,15,30.22,10.0,West,19.6,28.8,N/A,,Clear,280,2013-04-26 16:35:00
11:55 AM,75.2,24.8,15,30.22,10.0,West,21.9,27.6,N/A,,Clear,270,2013-04-26 16:55:00
12:15 PM,77.0,23.0,13,30.23,10.0,West,20.7,29.9,N/A,,Clear,270,2013-04-26 17:15:00
12:35 PM,77.0,23.0,13,30.23,10.0,WNW,18.4,29.9,N/A,,Clear,300,2013-04-26 17:35:00
12:55 PM,78.8,21.2,12,30.23,10.0,West,21.9,-,N/A,,Clear,280,2013-04-26 17:55:00
1:15 PM,78.8,21.2,12,30.22,10.0,West,21.9,28.8,N/A,,Clear,280,2013-04-26 18:15:00
1:35 PM,78.8,19.4,11,30.21,10.0,West,23.0,26.5,N/A,,Clear,280,2013-04-26 18:35:00
1:55 PM,78.8,19.4,11,30.21,10.0,WNW,20.7,24.2,N/A,,Clear,290,2013-04-26 18:55:00
2:15 PM,78.8,19.4,11,30.21,10.0,West,19.6,27.6,N/A,,Clear,280,2013-04-26 19:15:00
2:35 PM,78.8,19.4,11,30.20,10.0,WSW,10.4,23.0,N/A,,Clear,250,2013-04-26 19:35:00
2:55 PM,80.6,19.4,10,30.20,10.0,West,9.2,23.0,N/A,,Clear,270,2013-04-26 19:55:00
3:15 PM,80.6,19.4,10,30.19,10.0,West,17.3,25.3,N/A,,Clear,270,2013-04-26 20:15:00
3:35 PM,80.6,19.4,10,30.19,10.0,WSW,8.1,21.9,N/A,,Clear,250,2013-04-26 20:35:00
3:55 PM,82.4,19.4,10,30.18,10.0,WSW,13.8,20.7,N/A,,Clear,240,2013-04-26 20:55:00
4:15 PM,82.4,21.2,10,30.18,10.0,West,13.8,21.9,N/A,,Clear,260,2013-04-26 21:15:00
4:35 PM,80.6,21.2,11,30.17,10.0,WNW,13.8,20.7,N/A,,Clear,290,2013-04-26 21:35:00
4:55 PM,80.6,19.4,10,30.16,10.0,West,17.3,-,N/A,,Clear,280,2013-04-26 21:55:00
5:15 PM,80.6,19.4,10,30.16,10.0,WSW,9.2,-,N/A,,Clear,250,2013-04-26 22:15:00
5:35 PM,80.6,19.4,10,30.16,10.0,West,11.5,21.9,N/A,,Clear,280,2013-04-26 22:35:00
5:55 PM,80.6,19.4,10,30.16,10.0,West,8.1,17.3,N/A,,Clear,280,2013-04-26 22:55:00
6:15 PM,80.6,19.4,10,30.15,10.0,West,17.3,21.9,N/A,,Clear,280,2013-04-26 23:15:00
6:35 PM,80.6,19.4,10,30.15,10.0,West,15.0,18.4,N/A,,Clear,280,2013-04-26 23:35:00
6:55 PM,78.8,19.4,11,30.15,10.0,West,15.0,-,N/A,,Clear,280,2013-04-26 23:55:00
7:15 PM,78.8,19.4,11,30.15,10.0,WNW,9.2,-,N/A,,Clear,300,2013-04-27 00:15:00
7:35 PM,78.8,17.6,10,30.15,10.0,NW,6.9,-,N/A,,Clear,310,2013-04-27 00:35:00
7:55 PM,78.8,17.6,10,30.15,10.0,West,8.1,-,N/A,,Clear,280,2013-04-27 00:55:00
8:15 PM,75.2,17.6,11,30.16,10.0,NW,5.8,-,N/A,,Clear,310,2013-04-27 01:15:00
8:35 PM,71.6,14.0,11,30.16,10.0,NW,6.9,-,N/A,,Clear,310,2013-04-27 01:35:00
8:55 PM,66.2,10.4,11,30.16,10.0,NW,6.9,-,N/A,,Clear,320,2013-04-27 01:55:00
9:15 PM,62.6,6.8,11,30.17,10.0,NW,6.9,-,N/A,,Clear,320,2013-04-27 02:15:00
9:35 PM,59.0,6.8,13,30.18,10.0,NW,6.9,-,N/A,,Clear,310,2013-04-27 02:35:00
9:55 PM,57.2,6.8,13,30.18,10.0,NNW,3.5,-,N/A,,Clear,330,2013-04-27 02:55:00
10:15 PM,55.4,6.8,14,30.19,10.0,North,4.6,-,N/A,,Clear,10,2013-04-27 03:15:00
10:35 PM,55.4,8.6,15,30.20,10.0,North,9.2,-,N/A,,Clear,360,2013-04-27 03:35:00
10:55 PM,57.2,8.6,14,30.20,10.0,NNW,11.5,-,N/A,,Clear,340,2013-04-27 03:55:00
11:15 PM,55.4,6.8,14,30.21,10.0,NNW,6.9,-,N/A,,Clear,340,2013-04-27 04:15:00
11:35 PM,53.6,6.8,15,30.21,10.0,NNE,5.8,-,N/A,,Clear,20,2013-04-27 04:35:00
11:55 PM,53.6,6.8,15,30.21,10.0,North,6.9,-,N/A,,Clear,350,2013-04-27 04:55:00